Regional Weather Roundup
Issued by NWS

Home | Current Version | Previous Version | Text Only | Print | Product List | Glossary On
Versions: 1 2 3 4 5 6 7 8 9 10 11 12 13 14 15 16 17 18 19 20 21 22 23 24 25 26 27 28 29 30 31 32 33 34 35 36 37 38 39 40 41 42 43 44 45 46 47 48 49 50
000
ASUS43 KOAX 232010
RWRNE

WEATHER ROUNDUP FOR NEBRASKA
NATIONAL WEATHER SERVICE OMAHA NE
300 PM CDT THU MAR 23 2017

NOTES: SATELLITE DATA IS BEING USED TO AUGMENT CLOUD COVER ABOVE
       12000 FEET.
       "FAIR" INDICATES FEW OR NO CLOUDS BELOW 12,000 FEET WITH NO
       SIGNIFICANT WEATHER AND/OR OBSTRUCTIONS TO VISIBILITY.

  * THESE STATIONS DO NOT REPORT WEATHER SUCH AS RAIN...SNOW OR FOG.

NEZ001>004-019>022-054>056-232100-
NEBRASKA PANHANDLE

CITY           SKY/WX    TMP DP  RH WIND       PRES   REMARKS
SCOTTSBLUFF    SUNNY     70  39  32 SE8       29.58F
ALLIANCE       SUNNY     67  40  37 VRB3      29.58F
CHADRON        SUNNY     66  40  38 VRB5      29.59F
KIMBALL        SUNNY     71  39  30 E8G17     29.60F
SIDNEY         SUNNY     71  36  27 E7        29.60F
$$

NEZ057>060-069>072-079>082-232100-
SOUTHWEST NEBRASKA

CITY           SKY/WX    TMP DP  RH WIND       PRES   REMARKS
NORTH PLATTE   MOSUNNY   65  54  67 SE10      29.60F
IMPERIAL       SUNNY     75  48  38 SE10      29.56F
LEXINGTON      CLOUDY    69  58  70 SE10      29.61F
MCCOOK         SUNNY     83  51  33 S14G23    29.55F
OGALLALA       SUNNY     75  43  31 S5        29.57F
$$

NEZ005>010-023>029-035>040-094-232100-
NORTH CENTRAL NEBRASKA

CITY           SKY/WX    TMP DP  RH WIND       PRES   REMARKS
VALENTINE      MOSUNNY   60  45  57 S12       29.59F
AINSWORTH      CLOUDY    56  49  80 S10       29.61F
BROKEN BOW     CLOUDY    56  30  37 S9        29.63F HAZE
O`NEILL        CLOUDY    55  51  88 S18G25    29.64F
ORD            CLOUDY    53  51  93 SE12      29.63F FOG
THEDFORD       CLOUDY    60  51  71 S8        29.61F
$$

NEZ041-046>049-061>064-073>077-083>087-232100-
SOUTH CENTRAL NEBRASKA

CITY           SKY/WX    TMP DP  RH WIND       PRES   REMARKS
GRAND ISLAND   CLOUDY    60  55  83 S14       29.68F
AURORA         CLOUDY    61  55  78 S16G22    29.68F
HASTINGS       CLOUDY    64  56  75 S18G28    29.67F
HEBRON         PTSUNNY   71  55  56 S30G38    29.69F
HOLDREGE       PTSUNNY   71  56  57 S26G33    29.61F
KEARNEY *      CLOUDY    64  55  72 S21       29.64F
YORK           CLOUDY    63  54  72 S15       29.69F
$$

NEZ011>018-030>034-042>045-232100-
NORTHEAST NEBRASKA

CITY           SKY/WX    TMP DP  RH WIND       PRES   REMARKS
NORFOLK        CLOUDY    56  49  77 S16       29.69R
ALBION         CLOUDY    57  52  85 S16G22    29.69F HAZE
BLAIR          CLOUDY    66  47  49 SE10      29.77F
FREMONT        CLOUDY    63  47  55 CALM      29.75F
TEKAMAH        CLOUDY    61  42  49 SE8       29.79F
WAYNE          CLOUDY    55  47  76 S10       29.71F
$$

NEZ050>053-065>068-078-088>093-232100-
SOUTHEAST NEBRASKA

CITY           SKY/WX    TMP DP  RH WIND       PRES   REMARKS
LINCOLN        CLOUDY    71  54  54 S17G29    29.72F
OMAHA EPPLEY   CLOUDY    68  48  48 S18       29.76F
BEATRICE       CLOUDY    71  55  55 S22G33    29.72F
FALLS CITY     SUNNY     78  52  40 S21G36    29.77F
NEBRASKA CITY  CLOUDY    71  46  40 S20G25    29.77F
PLATTSMOUTH    CLOUDY    67  45  45 SE24G31   29.69F
$$

NEZ044-045-051>053-067-232100-
OMAHA AREA

CITY           SKY/WX    TMP DP  RH WIND       PRES   REMARKS
OMAHA EPPLEY   CLOUDY    68  48  48 S18       29.76F
BLAIR          CLOUDY    66  47  49 SE10      29.77F
FREMONT        CLOUDY    63  47  55 CALM      29.75F
MILLARD        CLOUDY    69  52  54 SE10      29.74F
OFFUTT AFB     CLOUDY    67  49  52 SE14      29.73F
PLATTSMOUTH    CLOUDY    67  45  45 SE24G31   29.69F
WAHOO          CLOUDY    67  49  53 S3        29.73F
$$




USA.gov is the U.S. government's official web portal to all federal, state and local government web resources and services.